When you browse on this site, cookies collect data to enhance your experience and personalize the content and advertising you see.
Visit our Privacy Policy to learn more. By continuing to use the site, you agree to this use of cookies and data.
  • In Hungary
  • List of Countries
  • For 7 days
  • Water Temperature
  • Satellite Maps
  • Weather Map
  • News
  • Weather Widgets
  • user-avatar
    Login

    Hourly Weather Chambil

    Today, 13 December, Thursday

    Time Temperature Precipitation Wind Pressure Humidity
    00:00 +7°C° 0 mm 2 mps 705 mmHg 43%
    01:00 +7°C° 0 mm 2 mps 705 mmHg 42%
    02:00 +7°C° 0 mm 2 mps 705 mmHg 40%
    03:00 +7°C° 0 mm 2 mps 706 mmHg 39%
    04:00 +5°C° 0 mm 3 mps 706 mmHg 38%
    05:00 +7°C° 0 mm 3 mps 706 mmHg 37%
    06:00 +7°C° 0 mm 3 mps 706 mmHg 35%
    07:00 +7°C° 0 mm 3 mps 706 mmHg 34%
    08:00 +9°C° 0 mm 3 mps 706 mmHg 31%
    09:00 +11°C° 0 mm 3 mps 706 mmHg 27%
    10:00 +14°C° 0 mm 2 mps 706 mmHg 24%
    11:00 +14°C° 0 mm 2 mps 706 mmHg 23%
    12:00 +15°C° 0 mm 2 mps 706 mmHg 22%
    13:00 +16°C° 0 mm 2 mps 706 mmHg 20%
    14:00 +15°C° 0 mm 2 mps 706 mmHg 23%
    15:00 +14°C° 0 mm 2 mps 706 mmHg 26%
    16:00 +13°C° 0 mm 2 mps 705 mmHg 29%
    17:00 +11°C° 0 mm 3 mps 706 mmHg 30%
    18:00 +10°C° 0 mm 3 mps 706 mmHg 30%
    19:00 +10°C° 0 mm 3 mps 706 mmHg 31%
    20:00 +9°C° 0 mm 3 mps 706 mmHg 30%
    21:00 +9°C° 0 mm 3 mps 706 mmHg 29%
    22:00 +9°C° 0 mm 3 mps 706 mmHg 28%
    23:00 +9°C° 0 mm 3 mps 706 mmHg 28%

    Tomorrow, 14 December, Friday

    Time Temperature Precipitation Wind Pressure Humidity
    00:00 +9°C° 0 mm 3 mps 706 mmHg 27%
    01:00 +9°C° 0 mm 3 mps 706 mmHg 26%
    02:00 +9°C° 0 mm 3 mps 706 mmHg 26%
    03:00 +9°C° 0 mm 3 mps 706 mmHg 25%
    04:00 +9°C° 0 mm 3 mps 706 mmHg 25%
    05:00 +9°C° 0 mm 3 mps 706 mmHg 25%
    06:00 +9°C° 0 mm 3 mps 706 mmHg 24%
    07:00 +8°C° 0 mm 4 mps 706 mmHg 24%
    08:00 +11°C° 0 mm 3 mps 707 mmHg 23%
    09:00 +13°C° 0 mm 3 mps 707 mmHg 21%
    10:00 +16°C° 0 mm 2 mps 707 mmHg 20%
    11:00 +17°C° 0 mm 2 mps 707 mmHg 18%
    12:00 +18°C° 0 mm 2 mps 707 mmHg 17%
    13:00 +19°C° 0 mm 2 mps 707 mmHg 15%
    14:00 +17°C° 0 mm 2 mps 707 mmHg 19%
    15:00 +16°C° 0 mm 2 mps 707 mmHg 22%
    16:00 +14°C° 0 mm 2 mps 707 mmHg 26%
    17:00 +13°C° 0 mm 2 mps 707 mmHg 26%
    18:00 +12°C° 0 mm 1 mps 708 mmHg 27%
    19:00 +12°C° 0 mm 1 mps 708 mmHg 28%
    20:00 +11°C° 0 mm 1 mps 708 mmHg 27%
    21:00 +10°C° 0 mm 2 mps 708 mmHg 27%
    22:00 +9°C° 0 mm 2 mps 708 mmHg 26%
    23:00 +9°C° 0 mm 2 mps 708 mmHg 27%

    Day after tomorrow, 15 December, Saturday

    Time Temperature Precipitation Wind Pressure Humidity
    00:00 +8°C° 0 mm 2 mps 708 mmHg 27%
    01:00 +9°C° 0 mm 1 mps 708 mmHg 28%
    02:00 +9°C° 0 mm 1 mps 708 mmHg 28%
    03:00 +8°C° 0 mm 1 mps 708 mmHg 28%
    04:00 +8°C° 0 mm 1 mps 708 mmHg 29%
    05:00 +8°C° 0 mm 1 mps 708 mmHg 28%
    06:00 +7°C° 0 mm 2 mps 708 mmHg 28%
    07:00 +7°C° 0 mm 2 mps 708 mmHg 28%
    08:00 +10°C° 0 mm 1 mps 708 mmHg 25%
    09:00 +12°C° 0 mm 1 mps 708 mmHg 23%
    10:00 +14°C° 0 mm 1 mps 708 mmHg 20%
    11:00 +14°C° 0 mm 1 mps 708 mmHg 19%
    12:00 +15°C° 0 mm 1 mps 707 mmHg 18%
    13:00 +16°C° 0 mm 1 mps 707 mmHg 17%
    14:00 +14°C° 0 mm 1 mps 707 mmHg 20%
    15:00 +13°C° 0 mm 1 mps 707 mmHg 23%
    16:00 +12°C° 0 mm 2 mps 707 mmHg 26%
    17:00 +10°C° 0 mm 2 mps 707 mmHg 27%
    18:00 +10°C° 0 mm 2 mps 707 mmHg 29%
    19:00 +9°C° 0 mm 2 mps 708 mmHg 30%
    20:00 +8°C° 0 mm 2 mps 708 mmHg 31%
    21:00 +8°C° 0 mm 2 mps 708 mmHg 31%
    22:00 +8°C° 0 mm 2 mps 708 mmHg 32%
    23:00 +7°C° 0 mm 2 mps 709 mmHg 34%

    16 December, Sunday

    Time Temperature Precipitation Wind Pressure Humidity
    00:00 +7°C° 0 mm 2 mps 709 mmHg 36%
    01:00 +6°C° 0 mm 2 mps 709 mmHg 39%
    02:00 +6°C° 0 mm 2 mps 709 mmHg 42%
    03:00 +6°C° 0 mm 2 mps 710 mmHg 45%
    04:00 +5°C° 0 mm 2 mps 710 mmHg 48%
    05:00 +5°C° 0 mm 2 mps 710 mmHg 51%
    06:00 +5°C° 0 mm 2 mps 711 mmHg 53%
    07:00 +5°C° 0 mm 1 mps 711 mmHg 56%
    08:00 +7°C° 0 mm 1 mps 711 mmHg 54%
    09:00 +7°C° 0 mm 2 mps 712 mmHg 51%
    10:00 +8°C° 0 mm 2 mps 712 mmHg 49%
    11:00 +9°C° 0 mm 2 mps 712 mmHg 47%
    12:00 +9°C° 0 mm 2 mps 712 mmHg 46%
    13:00 +10°C° 0 mm 2 mps 711 mmHg 44%
    14:00 +9°C° 0 mm 2 mps 711 mmHg 47%
    15:00 +10°C° 0 mm 1 mps 711 mmHg 50%
    16:00 +9°C° 0 mm 1 mps 711 mmHg 53%
    17:00 +8°C° 0 mm 1 mps 711 mmHg 54%
    18:00 +8°C° 0 mm 1 mps 711 mmHg 55%
    19:00 +7°C° 0 mm 1 mps 711 mmHg 57%
    20:00 +7°C° 0 mm 1 mps 711 mmHg 56%
    21:00 +7°C° 0 mm 1 mps 711 mmHg 55%
    22:00 +7°C° 0 mm 1 mps 711 mmHg 54%
    23:00 +7°C° 0 mm 1 mps 711 mmHg 53%

    17 December, Monday

    Time Temperature Precipitation Wind Pressure Humidity
    00:00 +6°C° 0 mm 1 mps 710 mmHg 51%
    01:00 +6°C° 0 mm 1 mps 710 mmHg 50%
    02:00 +6°C° 0 mm 1 mps 710 mmHg 49%
    03:00 +6°C° 0 mm 1 mps 710 mmHg 48%
    04:00 +6°C° 0 mm 1 mps 710 mmHg 47%
    05:00 +6°C° 0 mm 1 mps 710 mmHg 46%
    06:00 +6°C° 0 mm 1 mps 710 mmHg 45%
    07:00 +6°C° 0 mm 1 mps 710 mmHg 43%
    08:00 +7°C° 0 mm 1 mps 710 mmHg 39%
    09:00 +9°C° 0 mm 1 mps 710 mmHg 35%
    10:00 +11°C° 0 mm 1 mps 710 mmHg 30%
    11:00 +12°C° 0 mm 1 mps 710 mmHg 29%
    12:00 +12°C° 0 mm 1 mps 709 mmHg 28%
    13:00 +13°C° 0 mm 1 mps 709 mmHg 27%
    14:00 +12°C° 0 mm 1 mps 709 mmHg 30%
    15:00 +11°C° 0 mm 1 mps 708 mmHg 33%
    16:00 +10°C° 0 mm 1 mps 708 mmHg 36%
    17:00 +9°C° 0 mm 2 mps 708 mmHg 38%
    18:00 +8°C° 0 mm 2 mps 708 mmHg 39%
    19:00 +7°C° 0 mm 2 mps 708 mmHg 40%
    20:00 +7°C° 0 mm 2 mps 708 mmHg 40%
    21:00 +7°C° 0 mm 2 mps 708 mmHg 40%
    22:00 +7°C° 0 mm 2 mps 708 mmHg 39%
    23:00 +7°C° 0 mm 2 mps 708 mmHg 39%

    18 December, Tuesday

    Time Temperature Precipitation Wind Pressure Humidity
    00:00 +7°C° 0 mm 2 mps 707 mmHg 38%
    01:00 +7°C° 0 mm 2 mps 707 mmHg 37%
    02:00 +7°C° 0 mm 2 mps 707 mmHg 36%
    03:00 +7°C° 0 mm 2 mps 707 mmHg 35%
    04:00 +7°C° 0 mm 2 mps 706 mmHg 34%
    05:00 +7°C° 0 mm 2 mps 706 mmHg 33%
    06:00 +7°C° 0 mm 2 mps 706 mmHg 33%
    07:00 +7°C° 0 mm 2 mps 706 mmHg 32%
    08:00 +9°C° 0 mm 2 mps 706 mmHg 30%
    09:00 +12°C° 0 mm 2 mps 706 mmHg 27%
    10:00 +13°C° 0 mm 2 mps 707 mmHg 25%
    11:00 +14°C° 0 mm 2 mps 706 mmHg 24%
    12:00 +15°C° 0 mm 2 mps 705 mmHg 23%
    13:00 +16°C° 0 mm 2 mps 705 mmHg 22%
    14:00 +15°C° 0 mm 2 mps 705 mmHg 25%
    15:00 +13°C° 0 mm 3 mps 704 mmHg 28%
    16:00 +12°C° 0 mm 3 mps 704 mmHg 31%
    17:00 +12°C° 0 mm 3 mps 704 mmHg 31%
    18:00 +11°C° 0 mm 3 mps 703 mmHg 32%
    19:00 +11°C° 0 mm 3 mps 703 mmHg 33%
    20:00 +11°C° 0 mm 3 mps 703 mmHg 32%
    21:00 +11°C° 0 mm 3 mps 703 mmHg 32%
    22:00 +12°C° 0 mm 2 mps 703 mmHg 31%
    23:00 +12°C° 0 mm 2 mps 702 mmHg 30%
    Show more